Location: Mizzole
(45.4833°N, 11.0500°E)
Time: 01:52:02
(UTC+00:00)

Shenzhou-11 Module - Pass Details

Date: 21 October 2019
Orbit: 311 x 324 km, 42.8° (Epoch: 10 November)

Event Time Altitude Azimuth Distance (km) Brightness Sun altitude
Rises 17:51:45 0° 271° (W) 2,071 7.6 -16.6°
Reaches altitude 10° 17:54:00 10° 254° (WSW) 1,233 5.8 -17.0°
Maximum altitude 17:56:12 21° 201° (SSW) 785 3.8 -17.4°
Enters shadow 17:56:50 20° 180° (S) 831 3.7 -17.5°
